Вернуться в каталог

ONEWEB-0310

АктивенСвязьPO
NORAD 49096·PAYLOAD·🇬🇧 United Kingdom

Запущен Aug 21, 2021 с Baikonur Cosmodrome

Loading…

Ближайшие Пролёты (ближайшие 24 часа)

TLE

СвежийSource: CelesTrak SupGP

Эпоха: Sep 14, 2026, 18:13 UTC

1 49096C 21075X   26257.75919398  .00000179  00000+0  49889-3 0  2570
2 49096  87.8983 332.8940 0001913  99.7481   0.1399 13.12445385    13

Отслеживайте ONEWEB-0310 в реальном времени с AllMySat

Download on the App Store